カタログに戻る

FENGYUN 1C DEB

運用中SSO
NORAD 30173·DEBRIS·🇨🇳 China

打ち上げ May 10, 1999 から Taiyuan Satellite Launch Center

Loading…

次のパス (今後24時間)

TLE

最新Source: Space-Track

元期: Sep 14, 2026, 03:33 UTC

1 30173U 99025UE  26257.14829373  .00001580  00000-0  85043-3 0  9995
2 30173  98.9611 332.9630 0080214 231.6141 158.3924 14.12673550  4313

AllMySatでFENGYUN 1C DEBをリアルタイム追跡

Download on the App Store